West Plains, MO

3:08 PM CDT on March 27, 2017 (GMT -0500)
West Plains Municipal

Weather History for KUNO - May, 2013

Change the Weather History Date:

Wednesday, May 29, 2013

  Actual Average Record
Temperature  
Mean Temperature 74 °F 69 °F  
Max Temperature 82 °F 80 °F 93 °F (2012)
Min Temperature 65 °F 58 °F 41 °F (1984)
Degree Days  
Heating Degree Days 0 1  
Month to date heating degree days 125 79  
Since 1 July heating degree days 4487 4341  
Cooling Degree Days 9 5  
Month to date cooling degree days 79 84  
Year to date cooling degree days 98 112  
Growing Degree Days 22 (Base 50)    
Moisture  
Dew Point 63 °F    
Average Humidity 69    
Maximum Humidity 93    
Minimum Humidity 45    
Precipitation  
Precipitation 0.00 in 0.14 in 1.71 in (1950)
Month to date precipitation 2.91 4.65  
Year to date precipitation 19.19 18.98  
Sea Level Pressure  
Sea Level Pressure 29.91 in    
Wind  
Wind Speed 10 mph (SSE)    
Max Wind Speed 18 mph    
Max Gust Speed 25 mph    
Visibility 10 miles    
Events      
T = Trace of Precipitation, MM = Missing Value Source: NWS Daily Summary

Daily Weather History Graph

Daily Weather History Graph

Search for Another Location

Airport or City:

Trip Planner

Search our weather history database for the weather conditions in past years. The results will help you decide how hot, cold, wet, or windy it might be!

Date:

Astronomy

May. 29, 2013 Rise Set
Actual Time 5:50 AM CDT 8:19 PM CDT
Civil Twilight 5:20 AM CDT 8:49 PM CDT
Nautical Twilight 4:43 AM CDT 9:26 PM CDT
Astronomical Twilight 4:02 AM CDT 10:07 PM CDT
Moon No Moon Rise 10:46 AM CDT (5/29)
Length of Visible Light 15h 28m
Length of Day
14h 28m
Waning Gibbous, 73% of the Moon is Illuminated
May 29
Waning Gibbous
May 31
Last Quarter
Jun 8
New
Jun 16
First Quarter
Jun 23
Full

Hourly Weather History & Observations

Time (CDT) Temp. Heat Index Dew Point Humidity Pressure Visibility Wind Dir Wind Speed Gust Speed Precip Events Conditions
12:53 AM 70.0 °F - 64.0 °F 81% 29.91 in 10.0 mi South 4.6 mph - N/A   Clear
1:53 AM 69.1 °F - 63.0 °F 81% 29.91 in 10.0 mi South 3.5 mph - N/A   Clear
2:53 AM 68.0 °F - 63.0 °F 84% 29.92 in 10.0 mi South 5.8 mph - N/A   Clear
3:53 AM 66.9 °F - 62.1 °F 84% 29.93 in 10.0 mi SSE 3.5 mph - N/A   Clear
4:53 AM 64.9 °F - 62.1 °F 90% 29.93 in 10.0 mi SSE 4.6 mph - N/A   Clear
5:53 AM 66.0 °F - 62.1 °F 87% 29.94 in 10.0 mi SSE 5.8 mph - N/A   Clear
6:53 AM 66.9 °F - 63.0 °F 87% 29.95 in 10.0 mi South 6.9 mph - N/A   Clear
7:53 AM 71.1 °F - 64.9 °F 81% 29.96 in 10.0 mi South 6.9 mph - N/A   Clear
8:53 AM 73.0 °F - 64.9 °F 76% 29.98 in 10.0 mi South 9.2 mph 18.4 mph N/A   Partly Cloudy
9:53 AM 75.9 °F - 64.9 °F 69% 29.96 in 10.0 mi South 13.8 mph 21.9 mph N/A   Partly Cloudy
10:53 AM 77.0 °F - 64.0 °F 64% 29.96 in 10.0 mi SSE 13.8 mph 20.7 mph N/A   Scattered Clouds
11:53 AM 78.1 °F - 64.0 °F 62% 29.95 in 10.0 mi South 13.8 mph 21.9 mph N/A   Scattered Clouds
12:53 PM 80.1 °F 81.7 °F 64.0 °F 58% 29.94 in 10.0 mi South 12.7 mph 18.4 mph N/A   Scattered Clouds
1:53 PM 80.1 °F 81.5 °F 63.0 °F 56% 29.93 in 10.0 mi South 12.7 mph 21.9 mph N/A   Mostly Cloudy
2:53 PM 81.0 °F 81.9 °F 62.1 °F 52% 29.92 in 10.0 mi SSE 16.1 mph 23.0 mph N/A   Scattered Clouds
3:53 PM 80.1 °F 81.1 °F 61.0 °F 52% 29.92 in 10.0 mi South 16.1 mph 20.7 mph N/A   Mostly Cloudy
4:53 PM 80.1 °F 80.6 °F 57.9 °F 47% 29.90 in 10.0 mi South 10.4 mph 21.9 mph N/A   Clear
5:53 PM 80.1 °F 80.9 °F 60.1 °F 50% 29.88 in 10.0 mi SSE 12.7 mph - N/A   Clear
6:53 PM 79.0 °F - 60.1 °F 52% 29.85 in 10.0 mi SSE 6.9 mph - N/A   Clear
7:53 PM 75.9 °F - 60.1 °F 58% 29.83 in 10.0 mi SSE 10.4 mph - N/A   Clear
8:53 PM 75.9 °F - 62.1 °F 62% 29.85 in 10.0 mi SSE 10.4 mph 19.6 mph N/A   Partly Cloudy
9:53 PM 75.9 °F - 64.9 °F 69% 29.86 in 10.0 mi South 15.0 mph 24.2 mph N/A   Clear
10:53 PM 73.9 °F - 64.9 °F 73% 29.88 in 10.0 mi SSE 13.8 mph 20.7 mph N/A   Clear
11:53 PM 72.0 °F - 64.9 °F 78% 29.88 in 10.0 mi South 12.7 mph 19.6 mph N/A   Clear